OneWeb SL0149

operational
NORAD ID: 48058 Int'l Des: 2021-025 Owner: ONEWEBN Country: UK Constellation: oneweb
LEOCIRCULARPOLARONEWEB_TYPE

OneWeb SL0149について

説明を読み込み中...

リアルタイム位置

3D地球を読み込み中...

次回通過

高度履歴

Altitude vs Time

uPlot chart will show altitude changes over time

軌道要素

1 48058U 21025S 26035.15271373 .00000322 00000-0 84754-3 0 9998
2 48058 87.9032 346.6581 0002008 78.9035 281.2319 13.13471029236021
Epoch: Feb 4, 2026 • Age: 8 hours

現在のステータス

高度 1213.9 km
速度 7.25 km/s
衛星直下点 -5.08°S, 146.64°W
打ち上げ日 Mar 25, 2021
運用期間 4.8 years
タイプ internet

技術仕様

分類 Payload
質量 148.00 kg
乾燥質量 140.00 kg
総質量 148.00 kg
長さ 1.30 m
直径 1.00 m
スパン 5.00 m
形状 Trapezoid+2 pan
製造者 ONEWUS
バスタイプ ARROW
フェーズステータス In Orbit
所有者/国 ONEWEBN/UK

大規模コンステレーション

Loading constellations...